Time,TemperatureF,DewpointF,PressureIn,WindDirection,WindDirectionDegrees,WindSpeedMPH,WindSpeedGustMPH,Humidity,HourlyPrecipIn,Conditions,Clouds,dailyrainin,SoftwareType,DateUTC
2013-03-22 00:53:00,70.0,-99.9,29.96,North,350,6.0,7.0,-999,-99.99,,,-99.99,,2013-03-22 04:53:00,
2013-03-22 01:52:00,70.0,-99.9,29.95,North,360,3.0,5.0,-999,-99.99,,,-99.99,,2013-03-22 05:52:00,
2013-03-22 02:52:00,69.0,-99.9,29.93,North,0,0.0,0.0,-999,-99.99,,,-99.99,,2013-03-22 06:52:00,
2013-03-22 03:52:00,70.0,-99.9,29.92,ESE,120,1.0,2.0,-999,-99.99,,,-99.99,,2013-03-22 07:52:00,
2013-03-22 04:52:00,70.0,-99.9,29.91,SSE,160,2.0,3.0,-999,-99.99,,,-99.99,,2013-03-22 08:52:00,
2013-03-22 05:53:00,70.0,-99.9,29.90,SSE,160,5.0,6.0,-999,-99.99,,,-99.99,,2013-03-22 09:53:00,
2013-03-22 06:52:00,71.0,-99.9,29.91,SSE,160,6.0,7.0,-999,-99.99,,,-99.99,,2013-03-22 10:52:00,
2013-03-22 07:52:00,71.0,-99.9,29.92,SSE,150,6.0,7.0,-999,-99.99,,,-99.99,,2013-03-22 11:52:00,
2013-03-22 08:52:00,72.0,-99.9,29.94,ESE,120,6.0,6.0,-999,-99.99,,,-99.99,,2013-03-22 12:52:00,
2013-03-22 09:53:00,74.0,-99.9,29.97,South,180,8.0,8.0,-999,-99.99,,,-99.99,,2013-03-22 13:53:00,
2013-03-22 10:52:00,74.0,-99.9,29.98,SE,140,8.0,8.0,-999,-99.99,,,-99.99,,2013-03-22 14:52:00,
2013-03-22 11:53:00,75.0,-99.9,30.00,ESE,110,3.0,5.0,-999,-99.99,,,-99.99,,2013-03-22 15:53:00,
2013-03-22 12:53:00,75.0,-99.9,30.01,SSE,150,7.0,8.0,-999,-99.99,,,-99.99,,2013-03-22 16:53:00,
2013-03-22 13:53:00,75.0,-99.9,29.99,SSE,150,10.0,13.0,-999,-99.99,,,-99.99,,2013-03-22 17:53:00,
2013-03-22 14:52:00,76.0,-99.9,29.97,SSE,160,10.0,13.0,-999,-99.99,,,-99.99,,2013-03-22 18:52:00,
2013-03-22 15:52:00,76.0,-99.9,29.95,SE,130,8.0,10.0,-999,-99.99,,,-99.99,,2013-03-22 19:52:00,
2013-03-22 16:52:00,76.0,-99.9,29.94,SSE,160,10.0,13.0,-999,-99.99,,,-99.99,,2013-03-22 20:52:00,
2013-03-22 17:53:00,76.0,-99.9,29.93,SSE,160,9.0,10.0,-999,-99.99,,,-99.99,,2013-03-22 21:53:00,
2013-03-22 18:53:00,76.0,-99.9,29.93,SE,130,8.0,9.0,-999,-99.99,,,-99.99,,2013-03-22 22:53:00,
2013-03-22 19:52:00,76.0,-99.9,29.94,SSE,160,11.0,14.0,-999,-99.99,,,-99.99,,2013-03-22 23:52:00,
2013-03-22 20:52:00,76.0,-99.9,29.95,SSE,150,9.0,13.0,-999,-99.99,,,-99.99,,2013-03-23 00:52:00,
2013-03-22 21:53:00,76.0,-99.9,29.96,SSE,150,11.0,14.0,-999,-99.99,,,-99.99,,2013-03-23 01:53:00,
2013-03-22 22:52:00,76.0,-99.9,29.98,SE,140,8.0,10.0,-999,-99.99,,,-99.99,,2013-03-23 02:52:00,
2013-03-22 22:54:00,76.0,-99.9,29.99,SSE,150,8.0,10.0,-999,-99.99,,,-99.99,,2013-03-23 02:54:00,